Погода в Ангуганаке

Папуа-Новая Гвинея     3°34′59″S   142°15′06″E
темп.,
°C
ветер,
м/с
пор.,
м/с
влажн.,
%
обл.,
%
осадки,
мм/ч
давл.,
гПа
погр.,
м
10 августа, ср
ср1001:00+20с1197100 0.8 101116
04:00+20с1197100 1.0 101011
07:00+20ююз0198100 0.2 101220
10:00+22ююв019574 0.9 101294
13:00+25всв128451 2.6 1010674
16:00+25с129188 5.8 1008382
19:00+21с119881 2.0 101023
22:00+21с1299100 2.0 101239
11 августа, чт
чт1101:00+20с119889 0.0 101121
04:00+20ссв1198100 0.0 101111
07:00+20с009786 0.0 101212
10:00+25вюв018386 0.9 1013439
13:00+28ююв126638 0.9 10101175
16:00+28ссз116861 1.9 10081076
19:00+22с219440 0.6 101029
22:00+21с229768 1.6 101239
12 августа, пт
пт1201:00+21с1199100 3.6 101141
04:00+21с119778 4.0 101012
07:00+20юз019875 0.0 101214
10:00+24юз018465 0.3 1012339
13:00+27зсз117627 2.4 1009906
16:00+24ссв239431 6.7 1008422
19:00+21с239982 3.1 101165
22:00+21ссв1298100 3.8 101345
13 августа, сб
сб1301:00+20в009872 0.3 101213
04:00+21юв019997 0.4 101179
07:00+21ю119995 0.1 101280
10:00+22юв1195100 1.1 1013260
13:00+24в119397 4.2 1012511
16:00+21с1299100 11.7 101068
19:00+20с1199100 3.8 101244
22:00+20юз0198100 4.0 101320
14 августа, вс
вс1401:00+20юз119997 0.1 101223
04:00+20юз009999 0.1 101123
07:00+20юз0099100 0.1 101222
10:00+25ю107743 0.4 1013690
13:00+26сз008328 2.9 1010714
16:00+26св128372 6.4 1008548
19:00+21с229981 2.9 101058
22:00+21с229967 3.9 101256